Latest Weather Observations for Amberley

IDQ60801

Issued at 8:02 pm EST Sunday 1 February 2015 (issued every 30 minutes, with the page automatically refreshed every 10 minutes)

About weather observations | Map of weather stations | Latest weather observations for QLD | Other Formats
Station Details ID: 040004 Name: AMBERLEY AMO Lat: -27.63 Lon: 152.71 Height: 24.2 m
Data from the previous 72 hours. | See also: Recent months at Amberley
Date/Time
EST
Temp
°C
App
Temp
°C
Dew
Point
Rel
Hum
%
Delta-T
°C
Wind Press
QNH
hPa
Press
MSL
hPa
Rain
since 9 am
mm
Dir
 
Spd
km/h
Gust
km/h
Spd
kts
Gust
kts
01/07:30pm 26.5 26.9 20.9 71 3.7 ENE 20 26 11 14 1006.1 - 0.0
01/07:00pm 27.2 26.0 20.9 68 4.2 ENE 28 37 15 20 1005.7 - 0.0
01/06:30pm 27.9 26.8 21.1 66 4.5 ENE 28 35 15 19 1005.2 - 0.0
01/06:00pm 29.3 27.6 20.6 59 5.8 ENE 30 37 16 20 1004.6 1004.4 0.0
01/05:53pm 30.5 27.5 16.9 44 8.6 ENE 28 37 15 20 1004.5 - 0.0
01/05:30pm 33.8 32.0 7.8 20 14.5 SSE 7 11 4 6 1004.0 - 0.0
01/05:00pm 33.7 30.6 5.4 17 15.1 W 11 15 6 8 1003.7 - 0.0
01/04:30pm 34.0 29.8 3.9 15 15.7 SW 15 26 8 14 1003.4 - 0.0
01/04:00pm 34.0 30.7 4.3 15 15.6 SSW 11 20 6 11 1003.3 - 0.0
01/03:30pm 33.9 32.9 8.9 21 14.2 SW 4 17 2 9 1003.4 - 0.0
01/03:00pm 33.6 31.5 8.1 20 14.3 SW 9 17 5 9 1003.5 1003.3 0.0
01/02:30pm 33.4 31.7 12.3 27 12.6 S 13 19 7 10 1004.0 - 0.0
01/02:00pm 33.0 30.3 11.7 27 12.5 SSW 17 22 9 12 1004.1 - 0.0
01/01:30pm 32.7 30.5 13.4 31 11.6 SSW 17 22 9 12 1004.4 - 0.0
01/01:00pm 32.2 31.2 12.4 30 11.7 WSW 9 15 5 8 1005.0 - 0.0
01/12:30pm 31.8 31.2 13.4 32 11.1 SW 9 17 5 9 1005.5 - 0.0
01/11:30am 30.1 32.1 17.9 48 7.8 W 4 9 2 5 1006.6 - 0.0
01/11:00am 29.1 30.2 18.9 54 6.6 WSW 11 15 6 8 1007.0 - 0.0
01/10:30am 28.1 30.7 20.0 61 5.3 SSW 6 13 3 7 1007.3 - 0.0
01/09:30am 26.6 29.1 20.2 68 4.2 SSW 7 11 4 6 1007.8 - 0.0
01/09:00am 25.5 28.4 19.8 70 3.7 SW 4 9 2 5 1007.9 1007.7 0.0
01/08:00am 24.1 27.6 19.6 76 2.9 CALM 0 0 0 0 1007.8 - 0.0
01/07:30am 22.8 25.3 19.0 79 2.4 SW 4 9 2 5 1007.7 - 0.0
01/07:00am 21.0 24.4 19.3 90 1.1 CALM 0 0 0 0 1007.4 - 0.0
01/06:30am 19.8 22.8 18.5 92 0.8 CALM 0 0 0 0 1007.3 - 0.0
01/05:30am 17.9 20.4 17.2 96 0.4 CALM 0 0 0 0 1006.5 - 0.0
01/05:00am 17.7 20.1 17.0 96 0.4 CALM 0 0 0 0 1006.3 - 0.0
01/04:30am 17.8 18.6 17.3 97 0.3 WNW 9 9 5 5 1006.0 - 0.0
01/04:00am 17.8 19.9 17.3 97 0.3 SW 2 9 1 5 1005.8 - 0.0
01/03:40am 17.9 20.6 17.7 99 0.1 CALM 0 0 0 0 1005.8 - 0.0
01/03:30am 18.6 21.4 18.0 96 0.4 CALM 0 0 0 0 1005.7 - 0.0
01/03:00am 18.3 20.9 17.6 96 0.4 CALM 0 0 0 0 1005.6 1005.4 0.0
01/02:30am 19.0 21.8 18.0 94 0.6 CALM 0 0 0 0 1005.8 - 0.0
01/02:00am 19.3 21.6 17.8 91 0.9 SSW 2 6 1 3 1005.7 - 0.0
01/01:30am 20.4 22.0 18.3 88 1.3 SSW 7 9 4 5 1005.9 - 0.0
01/01:00am 20.1 21.7 18.2 89 1.2 SSW 7 9 4 5 1006.2 - 0.0
01/12:30am 20.3 21.6 18.4 89 1.2 SSW 9 11 5 6 1006.5 - 0.0
01/12:00am 20.9 21.8 18.5 86 1.5 SSW 11 11 6 6 1006.8 1006.5 0.0
 
Date/Time
EST
Temp
°C
App
Temp
°C
Dew
Point
Rel
Hum
%
Delta-T
°C
Wind Press
QNH
hPa
Press
MSL
hPa
Rain
since 9 am
mm
Dir
 
Spd
km/h
Gust
km/h
Spd
kts
Gust
kts
31/11:30pm 21.0 21.6 18.6 86 1.5 SSW 13 17 7 9 1006.9 - 0.0
31/11:00pm 21.6 22.3 18.9 84 1.7 SSW 13 15 7 8 1007.1 - 0.0
31/10:30pm 21.4 22.9 19.0 86 1.5 SSW 9 11 5 6 1007.2 - 0.0
31/10:00pm 21.3 22.8 18.9 86 1.5 S 9 11 5 6 1007.2 - 0.0
31/09:30pm 21.8 23.0 19.0 84 1.8 SE 11 13 6 7 1007.1 - 0.0
31/09:00pm 23.4 24.2 19.0 76 2.8 E 13 19 7 10 1006.9 1006.7 0.0
31/08:30pm 23.8 23.8 18.9 74 3.1 ENE 17 22 9 12 1006.4 - 0.0
31/08:00pm 23.8 24.2 18.9 74 3.1 E 15 22 8 12 1006.0 - 0.0
31/07:30pm 23.8 24.5 18.9 74 3.1 ESE 13 17 7 9 1005.7 - 0.0
31/07:00pm 24.2 25.1 19.2 73 3.2 ESE 13 15 7 8 1005.2 - 0.0
31/06:30pm 24.7 23.0 18.0 66 4.2 E 24 30 13 16 1004.5 - 0.0
31/06:00pm 25.6 24.4 18.5 65 4.5 ENE 22 30 12 16 1004.0 1003.8 0.0
31/05:30pm 26.9 26.1 18.5 60 5.4 E 20 30 11 16 1003.7 - 0.0
31/05:00pm 28.5 28.5 20.2 60 5.5 ESE 20 28 11 15 1003.1 - 0.0
31/04:30pm 27.7 26.3 18.9 58 5.7 SSE 24 32 13 17 1003.3 - 0.0
31/04:00pm 29.9 27.7 16.9 45 8.2 S 24 32 13 17 1002.8 - 0.0
31/03:30pm 32.5 33.1 16.8 39 10.0 N 9 15 5 8 1002.4 - 0.0
31/03:00pm 33.6 33.2 17.1 37 10.6 NNW 15 24 8 13 1002.4 1002.2 0.0
31/02:30pm 33.1 33.1 18.2 41 9.7 N 15 22 8 12 1003.2 - 0.0
31/02:00pm 32.3 32.5 17.7 41 9.4 N 13 20 7 11 1003.5 - 0.0
31/01:30pm 32.0 33.0 18.6 45 8.7 N 11 20 6 11 1003.9 - 0.0
31/01:00pm 31.8 33.9 19.3 47 8.2 W 7 15 4 8 1004.7 - 0.0
31/12:30pm 31.3 32.7 19.6 49 7.7 N 11 19 6 10 1005.2 - 0.0
31/12:00pm 30.1 31.2 19.6 53 6.9 WNW 13 19 7 10 1005.8 1005.6 0.0
31/11:30am 29.6 30.1 19.2 53 6.8 NW 15 24 8 13 1006.4 - 0.0
31/11:00am 28.7 29.6 18.4 53 6.6 NNW 11 20 6 11 1007.1 - 0.0
31/10:30am 28.1 28.0 18.8 57 6.0 WNW 17 28 9 15 1007.6 - 0.0
31/10:00am 27.6 28.3 18.9 59 5.6 NNW 13 22 7 12 1007.9 - 0.0
31/09:30am 27.0 28.0 19.4 63 4.9 NW 13 19 7 10 1008.2 - 0.0
31/09:10am 26.7 27.3 19.4 64 4.7 NW 15 22 8 12 1008.3 - 0.0
31/09:00am 25.3 26.8 19.7 71 3.6 WNW 11 17 6 9 1008.3 1008.1 0.2
31/08:47am 25.8 28.4 20.5 72 3.5 WSW 7 11 4 6 1008.4 - 0.2
31/08:30am 25.0 27.9 19.9 73 3.3 W 4 9 2 5 1008.3 - 0.2
31/08:00am 23.8 26.3 19.8 78 2.6 SW 6 9 3 5 1008.4 - 0.2
31/07:30am 22.6 26.1 19.6 83 1.9 CALM 0 7 0 4 1008.4 - 0.2
31/07:00am 21.2 23.4 19.1 88 1.3 SW 6 9 3 5 1008.4 - 0.2
31/06:30am 20.0 23.2 18.9 93 0.7 CALM 0 0 0 0 1008.1 - 0.2
31/06:06am 18.5 21.3 18.0 97 0.3 CALM 0 0 0 0 1007.8 - 0.2
31/06:00am 18.2 20.9 17.7 97 0.3 CALM 0 0 0 0 1007.7 1007.5 0.2
31/05:49am 17.8 20.4 17.5 98 0.2 CALM 0 0 0 0 1007.6 - 0.2
31/05:40am 17.8 20.4 17.5 98 0.2 CALM 0 0 0 0 1007.5 - 0.2
31/05:30am 18.0 20.7 17.7 98 0.2 CALM 0 0 0 0 1007.4 - 0.2
31/05:00am 17.6 20.0 17.1 97 0.3 CALM 0 0 0 0 1007.0 - 0.2
31/04:52am 18.2 20.9 17.7 97 0.3 CALM 0 0 0 0 1007.0 - 0.2
31/04:35am 18.4 21.2 17.9 97 0.3 CALM 0 0 0 0 1006.8 - 0.2
31/04:30am 18.4 21.2 17.9 97 0.3 CALM 0 0 0 0 1006.8 - 0.2
31/04:16am 18.1 20.7 17.6 97 0.3 CALM 0 0 0 0 1006.8 - 0.2
31/04:00am 18.6 21.4 18.0 96 0.4 CALM 0 0 0 0 1006.8 - 0.2
31/03:30am 18.7 21.5 17.9 95 0.5 CALM 0 0 0 0 1006.7 - 0.2
31/03:00am 18.5 21.3 18.0 97 0.3 CALM 0 0 0 0 1006.4 1006.2 0.2
31/02:30am 18.7 21.6 18.1 96 0.4 CALM 0 0 0 0 1006.2 - 0.2
31/02:00am 19.4 22.3 18.3 93 0.7 CALM 0 0 0 0 1006.4 - 0.2
31/01:30am 19.4 22.5 18.6 95 0.5 CALM 0 0 0 0 1006.5 - 0.2
31/01:00am 19.0 21.9 18.2 95 0.5 CALM 0 0 0 0 1007.0 - 0.2
31/12:30am 20.0 23.1 18.6 92 0.9 CALM 0 0 0 0 1007.1 - 0.2
31/12:00am 19.9 22.8 18.3 90 1.0 CALM 0 0 0 0 1007.4 1007.2 0.2
 
Date/Time
EST
Temp
°C
App
Temp
°C
Dew
Point
Rel
Hum
%
Delta-T
°C
Wind Press
QNH
hPa
Press
MSL
hPa
Rain
since 9 am
mm
Dir
 
Spd
km/h
Gust
km/h
Spd
kts
Gust
kts
30/11:30pm 20.3 22.7 18.9 92 0.9 WSW 4 7 2 4 1007.6 - 0.2
30/11:00pm 20.7 23.0 18.6 88 1.3 S 4 7 2 4 1007.6 - 0.2
30/10:30pm 21.8 23.6 18.8 83 1.9 S 7 9 4 5 1007.6 - 0.2
30/10:00pm 21.6 23.1 18.9 84 1.7 S 9 11 5 6 1007.6 - 0.2
30/09:30pm 21.9 23.4 18.9 83 1.9 SSE 9 9 5 5 1007.4 - 0.2
30/09:00pm 22.8 24.9 19.4 81 2.2 ENE 7 9 4 5 1007.1 1006.9 0.2
30/08:30pm 23.6 25.4 19.6 78 2.6 ENE 9 11 5 6 1006.7 - 0.2
30/08:00pm 24.2 25.5 19.2 73 3.2 ENE 11 13 6 7 1006.5 - 0.2
30/07:30pm 24.7 25.6 19.2 71 3.5 ENE 13 17 7 9 1006.3 - 0.2
30/07:00pm 25.2 25.6 19.0 68 4.0 ENE 15 20 8 11 1006.1 - 0.2
30/06:30pm 26.1 25.6 18.6 63 4.8 NE 19 26 10 14 1005.7 - 0.2
30/06:00pm 27.0 26.2 18.4 59 5.5 ENE 20 28 11 15 1005.4 1005.2 0.2
30/05:30pm 27.4 25.8 18.3 57 5.8 ENE 24 32 13 17 1005.2 - 0.2
30/05:00pm 28.1 26.4 18.1 54 6.4 ENE 24 32 13 17 1004.9 - 0.2
30/04:30pm 30.7 30.4 14.3 36 10.0 N 9 13 5 7 1004.9 - 0.2
30/04:00pm 30.8 30.7 14.0 36 10.2 N 7 15 4 8 1005.0 - 0.2
30/03:30pm 29.7 29.5 13.7 37 9.6 NNW 7 19 4 10 1005.2 - 0.2
30/03:00pm 30.3 31.0 14.6 38 9.6 S 4 11 2 6 1005.5 1005.3 0.2
30/02:30pm 30.6 30.2 15.2 39 9.5 SW 11 17 6 9 1006.0 - 0.2
30/02:00pm 29.9 30.7 13.6 36 9.8 WSW 2 9 1 5 1006.3 - 0.2
30/01:30pm 29.3 29.5 15.7 43 8.4 W 9 15 5 8 1006.7 - 0.2
30/01:00pm 29.0 29.9 16.1 45 8.0 E 6 11 3 6 1007.2 - 0.2
30/12:30pm 28.2 28.3 15.5 46 7.8 ESE 9 15 5 8 1007.7 - 0.2
30/12:00pm 27.9 29.4 16.7 50 7.0 W 4 11 2 6 1008.2 1008.0 0.2
30/11:30am 26.9 27.5 16.8 54 6.3 NW 9 20 5 11 1008.7 - 0.2
30/11:00am 26.9 28.1 17.3 55 6.0 N 7 15 4 8 1009.1 - 0.2
30/10:30am 26.6 27.7 16.6 54 6.2 E 6 11 3 6 1009.6 - 0.2
30/10:00am 26.1 27.1 16.4 55 6.0 NNE 6 15 3 8 1009.7 - 0.0
30/09:30am 25.0 25.9 17.5 63 4.7 NE 9 15 5 8 1009.8 - 0.0
30/09:00am 25.1 26.7 17.8 64 4.6 SE 6 11 3 6 1010.0 1009.8 1.2
30/08:30am 23.9 25.7 17.3 66 4.1 WSW 4 7 2 4 1010.1 - 1.2
30/08:00am 23.4 25.6 16.5 65 4.2 CALM 0 0 0 0 1010.1 - 1.2
30/07:30am 22.2 25.2 18.4 79 2.4 CALM 0 0 0 0 1010.0 - 1.2
30/07:00am 20.9 24.2 19.2 90 1.1 CALM 0 0 0 0 1009.9 - 1.2
30/06:30am 20.0 23.2 18.9 93 0.7 CALM 0 0 0 0 1009.7 - 1.2
30/06:00am 19.2 22.2 18.4 95 0.5 CALM 0 0 0 0 1009.5 1009.3 1.2
30/05:30am 19.0 21.8 17.9 93 0.7 CALM 0 0 0 0 1009.1 - 1.2
30/05:00am 19.2 22.0 17.9 92 0.8 CALM 0 0 0 0 1008.9 - 1.2
30/04:30am 19.5 22.4 18.2 92 0.8 CALM 0 0 0 0 1009.0 - 1.2
30/04:00am 19.6 22.7 18.6 94 0.6 CALM 0 0 0 0 1009.0 - 1.2
30/03:30am 20.0 22.9 18.2 89 1.1 CALM 0 0 0 0 1008.9 - 1.2
30/03:00am 19.5 22.5 18.4 93 0.7 CALM 0 0 0 0 1008.9 1008.7 1.2
30/02:30am 18.7 21.5 17.9 95 0.5 CALM 0 0 0 0 1009.0 - 1.2
30/02:00am 19.6 21.1 18.1 91 0.9 SSW 7 7 4 4 1009.2 - 1.2
30/01:30am 19.7 20.8 17.9 89 1.1 SSW 9 9 5 5 1009.6 - 1.2
30/01:00am 19.6 22.5 18.1 91 0.9 CALM 0 0 0 0 1009.7 - 1.2
30/12:30am 20.0 21.4 17.9 88 1.3 SSW 7 11 4 6 1009.6 - 1.2
30/12:00am 20.1 23.0 18.3 89 1.1 CALM 0 0 0 0 1009.7 1009.5 1.2
 
Date/Time
EST
Temp
°C
App
Temp
°C
Dew
Point
Rel
Hum
%
Delta-T
°C
Wind Press
QNH
hPa
Press
MSL
hPa
Rain
since 9 am
mm
Dir
 
Spd
km/h
Gust
km/h
Spd
kts
Gust
kts
29/11:30pm 21.0 23.6 18.3 84 1.7 SE 2 6 1 3 1010.0 - 1.2
29/11:00pm 21.0 22.5 18.1 83 1.8 SSE 7 9 4 5 1010.1 - 1.2
29/10:30pm 21.2 22.1 18.3 83 1.8 SSE 11 15 6 8 1010.2 - 1.2
29/10:00pm 22.2 22.3 17.5 74 2.9 SE 13 17 7 9 1010.1 - 1.2
29/09:30pm 22.3 23.1 18.1 77 2.6 SE 11 17 6 9 1010.3 - 1.2
29/09:00pm 22.8 22.2 17.5 72 3.3 ENE 17 24 9 13 1009.6 1009.4 0.8
29/08:30pm 23.8 22.4 16.5 63 4.5 ENE 19 24 10 13 1009.3 - 0.2

Other Formats:

Comma delimited format used in spreadsheet applications
http://www.bom.gov.au/fwo/IDQ60801/IDQ60801.94568.axf

JavaScript Object Notation format (JSON) in row-major order
http://www.bom.gov.au/fwo/IDQ60801/IDQ60801.94568.json